AirNav   Free SoundLink Mini II speaker
 
 812 users online  

1C5 Bolingbrook's Clow International Airport
Bolingbrook, Illinois, USA

GOING TO BOLINGBROOK?


FAA INFORMATION EFFECTIVE 26 MARCH 2020

Location

FAA Identifier: 1C5
Lat/Long: 41-41-45.3000N 088-07-46.2000W
41-41.755000N 088-07.770000W
41.6959167,-88.1295000
(estimated)
Elevation: 674.9 ft. / 206 m (estimated)
Variation: 04W (2020)
Time zone: UTC -5 (UTC -6 during Standard Time)
Zip code: 60490

Airport Operations

Airport use: Open to the public
Activation date: 03/1967
Control tower: no
ARTCC: CHICAGO CENTER
FSS: KANKAKEE FLIGHT SERVICE STATION
NOTAMs facility: IKK (NOTAM-D service available)
Attendance: 0700-1800
Pattern altitude: 1504.9 ft. MSL
Wind indicator: lighted
Segmented circle: no
Lights: MIRL RY 18/36 PRESET LOW INTST DUSK-DAWN TO INCR INTST - CTAF
Beacon: white-green (lighted land airport)
Operates sunset to sunrise.

Airport Communications

CTAF: 122.9
CHICAGO APPROACH: 119.35
CHICAGO DEPARTURE: 119.35
IC: 119.35
WX AWOS-3 at LOT (5 nm S): 118.525 (815-588-4802)
WX AWOS-3 at JOT (11 nm S): 119.975 (815-730-9560)
WX ASOS at DPA (14 nm NW): 124.8 (630-587-3668)
WX ASOS at ARR (16 nm W): PHONE 630-466-5622
WX AWOS-3 at 06C (18 nm N): 128.275 ((847) 895-2887)
WX ASOS at MDW (18 nm E): PHONE 773-884-4424
WX ASOS at ORD (19 nm NE): PHONE 773-462-0118

Nearby radio navigation aids

VOR radial/distance  VOR name  Freq  Var
JOTr041/12.3JOLIET VOR/DME112.3002E
DPAr138/15.3DUPAGE VOR/DME108.4002E
CGTr292/27.4CHICAGO HEIGHTS VORTAC114.2002E
EONr327/29.8PEOTONE VORTAC113.2002E
OBKr196/32.5NORTHBROOK VOR/DME113.0002W
IKKr341/39.4KANKAKEE VOR/DME111.6000E

Airport Services

Fuel available: 100LL JET-A
Parking: hangars and tiedowns
Airframe service: MAJOR
Powerplant service: MAJOR
Bottled oxygen: NONE
Bulk oxygen: NONE

Runway Information

Runway 18/36

Dimensions: 3360 x 75 ft. / 1024 x 23 m
Surface: asphalt, in good condition
Weight bearing capacity: 
Single wheel: 12.5
Runway edge lights: medium intensity
RUNWAY 18  RUNWAY 36
Latitude: 41-42.031245N41-41.478230N
Longitude: 088-07.779947W088-07.758665W
Elevation: 674.9 ft.657.0 ft.
Traffic pattern: leftleft
Runway heading: 182 magnetic, 178 true002 magnetic, 358 true
Markings: nonprecision, in good conditionnonprecision, in good condition
Touchdown point: yes, no lightsyes, no lights
Obstructions: 34 ft. tree, 694 ft. from runway, 90 ft. left of centerline, 14:1 slope to clearnone

Airport Ownership and Management from official FAA records

Ownership: Publicly-owned
Owner: VILLAGE OF BOLINGBROOK
375 W BRIARCLIFF ROAD
BOLINGBROOK, IL 60440
Phone 630-226-8400
Manager: JOSEPH DE PAULO
130 S CLOW INTL PARKWAY
BOLINGBROOK, IL 60490
Phone 630-378-0479
EMAIL ADDRESS: JOEDEPAULO@GMAIL.COM

Airport Operational Statistics

Aircraft based on the field: 68
Single engine airplanes: 57
Multi engine airplanes: 5
Helicopters: 1
Ultralights: 5
    
Aircraft operations: avg 137/day *
52% local general aviation
44% transient general aviation
4% air taxi
* for 12-month period ending 31 August 2017

Additional Remarks

TWY ONLY 20 FT WIDE. LARGE ARCT CONSIDER BACK-TAXI.
NO TGL, ALL FULL STOP LDGS.
FOR CD CTC CHICAGO APCH AT 847-289-0926.
FLT SCHOOL OPS ONLY: 123.50

Instrument Procedures

NOTE: All procedures below are presented as PDF files. If you need a reader for these files, you should download the free Adobe Reader.

NOT FOR NAVIGATION. Please procure official charts for flight.
FAA instrument procedures published for use from 26 March 2020 at 0901Z to 23 April 2020 at 0900Z.

 
IAPs - Instrument Approach Procedures
RNAV (GPS)-B   download (154KB)
VOR-A **CHANGED**   download (159KB)
NOTE: Special Take-Off Minimums/Departure Procedures apply   download (369KB)

Other nearby airports with instrument procedures:

KLOT - Lewis University Airport (5 nm S)
KDPA - DuPage Airport (14 nm NW)
KARR - Aurora Municipal Airport (16 nm W)
KMDW - Chicago Midway International Airport (18 nm E)
KORD - Chicago O'Hare International Airport (19 nm NE)
 
Loc | Ops | Rwys | IFR | FBO | Links
Com | Nav | Svcs | Stats | Notes
Area around 1C5 (Bolingbrook's Clow International Airport)
 
Road maps at: MapQuest Bing Google
 
Aerial photo
WARNING: Photo may not be current or correct
Aerial photo of 1C5 (Bolingbrook's Clow International Airport)
Taken in 2016
looking southeast.

Do you have a better or more recent aerial photo of Bolingbrook's Clow International Airport that you would like to share? If so, please send us your photo.

 
Sectional chart

 
Airport distance calculator
Flying to Bolingbrook's Clow International Airport? Find the distance to fly.

From to 1C5

Sunrise and sunset
Times for 06-Apr-2020
 Local
(UTC-5)
 Zulu
(UTC)
Morning civil twilight05:5810:58
Sunrise06:2611:26
Sunset19:2300:23
Evening civil twilight19:5100:51

Current date and time
Zulu (UTC)  07-Apr-2020 00:17:31
Local (UTC-5)  06-Apr-2020 19:17:31
 
METAR
KLOT 
5nm S 
062355Z AUTO 21006KT 10SM SCT080 SCT120 16/11 A2992 RMK AO2 T01610112 10182 20155
KJOT 
11nm S 
062355Z AUTO 22006KT 10SM BKN070 19/12 A2993 RMK AO2 T01850115 10195 20166
KDPA 
14nm N 
062352Z 18004KT 10SM FEW060 BKN110 14/11 A2991 RMK AO2 RAE2255 SLP131 P0000 60000 T01440106 10172 20144 56013
KARR 
16nm W 
062352Z 17005KT 9SM FEW048 SCT060 BKN120 17/09 A2991 RMK AO2 SLP130 T01670094 10172 20156 58011
K06C 
18nm N 
062357Z AUTO 00000KT 10SM SCT065 SCT075 BKN110 15/09 A2992 RMK AO1
KMDW 
18nm E 
062353Z 09004KT 10SM SCT040 SCT080 BKN110 BKN150 14/09 A2993 RMK AO2 RAE17 SLP140 P0001 60001 T01390094 10183 20139 58008
KORD 
19nm NE 
062351Z 00000KT 10SM FEW039 SCT065 BKN090 OVC200 17/09 A2992 RMK AO2 RAB2252E01B30E48 SLP131 P0000 60000 T01670094 10178 20161 58012
TAF
KDPA 
14nm N 
062100Z 0621/0718 19011G17KT P6SM BKN035 BKN060 FM062200 18009KT P6SM VCSH BKN030 FM070000 13007KT P6SM VCSH OVC025 FM070300 12006KT P6SM VCSH OVC015 FM070600 12004KT 4SM BR OVC007 TEMPO 0706/0710 3SM TSRA OVC004CB FM071500 23010KT P6SM BKN025
KMDW 
18nm E 
062100Z 0621/0724 19011G17KT P6SM BKN040 OVC060 FM070000 18009KT P6SM VCSH BKN030 FM070100 13007KT P6SM VCSH OVC025 FM070400 12006KT P6SM VCSH OVC015 FM070600 12004KT 4SM BR OVC007 TEMPO 0706/0710 3SM TSRA OVC004CB FM071500 23010KT P6SM BKN025 FM071800 24013G21KT P6SM BKN040 PROB30 0722/0724 3SM TSRA BKN030CB
KORD 
19nm NE 
062100Z 0621/0724 19011G17KT P6SM BKN040 OVC060 FM062300 18009KT P6SM VCSH BKN030 FM070100 13007KT P6SM VCSH OVC025 FM070300 12006KT P6SM VCSH OVC015 FM070600 12004KT 4SM BR OVC007 TEMPO 0706/0710 3SM TSRA OVC004CB FM071500 23010KT P6SM BKN025 FM071800 24013G21KT P6SM BKN040 PROB30 0722/0724 3SM TSRA BKN030CB
NOTAMs
Click for the latest NOTAMs
NOTAMs are issued by the DoD/FAA and will open in a separate window not controlled by AirNav.

 

 
 

FBO, Fuel Providers, and Aircraft Ground Support

  
 Business Name 
 
 Contact 
 
 Services / Description 
 
Fuel Prices
 
Comments
  
JW Aviation 630-759-1555
[web site]
[email]
Aviation fuel, Aircraft parking (ramp or tiedown), Hangars, Flight training, Aircraft rental, Aerial tours / aerial sightseeing, Pilot supplies, Flying club, ...

More info about JW Aviation
Phillips 66
100LL Jet A
SS $4.65 $3.93 
 Updated 26-Mar-2020
 
   1 read write
SS=Self service
Update Fuel Prices
 

Where to Eat: Catering, Restaurants, Food shops

  
 Business Name 
 
 Contact 
 
 Services / Description 
 
Distance
 
Comments
  
Charlie's at 1C5 630-771-0501
no information available

If you are affiliated with Charlie's at 1C5 and would like to show here your services, contact info, web link, logo, and more, click here
on airport  
   2 read write
 

Would you like to see your business listed on this page?

 If your business provides an interesting product or service to pilots, flight crews, aircraft, or users of the Bolingbrook's Clow International Airport, you should consider listing it here.  To start the listing process, click on the button below
 
Add a business
 

Other Pages about Bolingbrook's Clow International Airport

bbclowairport.com
 
Update a link
 
Copyright © AirNav, LLC. All rights reserved. Privacy Policy  Contact